Location: Ferques
(50.8300°N, 1.7599°E)
Time: 06:59:07
(UTC+00:00)

Lacrosse 4 Rocket - Pass Details

Date: 19 May 2025
Orbit: 513 x 576 km, 68.0° (Epoch: 18 June)

Event Time Altitude Azimuth Distance (km) Brightness Sun altitude
Rises 20:15:51 0° 234° (SW) 2,634 5.0 -5.1°
Reaches altitude 10° 20:18:05 10° 242° (WSW) 1,757 4.2 -5.4°
Maximum altitude 20:21:48 40° 313° (NW) 792 2.9 -5.8°
Drops below altitude 10° 20:25:36 10° 24° (NNE) 1,799 4.2 -6.3°
Sets 20:27:55 0° 32° (NNE) 2,706 5.0 -6.5°
